Regional Weather Roundup
Issued by NWS

Home | Current Version | Previous Version | Text Only | Print | Product List | Glossary Off
Versions: 1 2 3 4 5 6 7 8 9 10 11 12 13 14 15 16 17 18 19 20 21 22 23 24 25 26 27 28 29 30 31 32 33 34 35 36 37 38 39 40 41 42 43 44 45 46 47 48 49 50

000
ASUS45 KBOI 022210
RWRID
WEATHER ROUNDUP FOR IDAHO
NATIONAL WEATHER SERVICE BOISE ID
300 PM MST MON MAR 02 2015

NOTE: "FAIR" INDICATES FEW OR NO CLOUDS BELOW 12000 FEET
WITH NO SIGNIFICANT WEATHER AND/OR OBSTRUCTIONS TO VISIBILITY

IDZ012-014-022300-
SOUTHWEST IDAHO


CITY           SKY/WX    TMP DP  RH WIND       PRES   REMARKS
BOISE          SUNNY     48  21  34 NW12      29.73F
CALDWELL       SUNNY     46  21  36 NW7       29.77F
MOUNTAIN HOME  SUNNY     50  17  27 W7        29.71F
$$

IDZ016-017-022300-
SOUTHCENTRAL IDAHO


CITY           SKY/WX    TMP DP  RH WIND       PRES   REMARKS
BURLEY         MOSUNNY   47  17  30 N6        29.64F
JEROME         SUNNY     48  10  21 VRB5      29.67F
TWIN FALLS     SUNNY     48  16  27 W3        29.67F
$$

IDZ019>023-022300-
SOUTHEAST IDAHO


CITY           SKY/WX    TMP DP  RH WIND       PRES   REMARKS
IDAHO FALLS    CLOUDY    43  18  36 E3        29.66F
POCATELLO      PTSUNNY   42  22  44 CALM      29.67F
REXBURG        PTSUNNY   42  18  37 CALM      29.65F
$$

IDZ006-010-011-018-031-032-022300-
CENTRAL IDAHO MOUNTAINS


CITY           SKY/WX    TMP DP  RH WIND       PRES   REMARKS
MCCALL         PTSUNNY   39  13  34 VRB6      29.70F WCI  35
HAILEY         MOSUNNY   43  12  28 CALM      29.65F
STANLEY          N/A     36  12  37 VRB5      29.66F WCI  32
SALMON         PTSUNNY   43  10  26 CALM      29.68F
CHALLIS        MOSUNNY   44   9  23 CALM      29.64F
$$

IDZ002-004-006-007-026-022300-
NORTHERN IDAHO


CITY           SKY/WX    TMP DP  RH WIND       PRES   REMARKS
LEWISTON       CLOUDY    44  27  51 NW9       29.88S
LOWELL           N/A     48  21  34 VRB5      29.83F
COEUR D`ALENE  PTSUNNY   39  23  52 W6        29.86F WCI  35
MULLAN PASS    SNOW      22  20  92 CALM      29.71F VSB 1/2
$$


USA.gov is the U.S. government's official web portal to all federal, state and local government web resources and services.